Location: Prague
(50.0830°N, 14.4670°E)
Time: 07:02:13
(UTC+02:00)

Envisat - Pass Details

Date: 29 September 2021
Orbit: 764 x 766 km, 98.2° (Epoch: 26 October)

Event Time Altitude Azimuth Distance (km) Brightness Sun altitude
Rises 05:07:10 0° 25° (NNE) 3,244 6.9 -18.5°
Reaches altitude 10° 05:10:02 10° 41° (NE) 2,311 6.4 -18.1°
Maximum altitude 05:13:52 21° 90° (E) 1,670 5.6 -17.5°
Drops below altitude 10° 05:17:39 10° 139° (SE) 2,297 5.8 -16.9°
Sets 05:20:30 0° 155° (SSE) 3,218 6.3 -16.5°
